www.pogodaiklimat.ru

Погода и климат >> Архив погоды >> Китай >> Синьцзян-Уйгурский автономный район >> Цзяньфан


ПОГОДА в Цзяньфане

  • Прогноз погоды в Цзяньфане
  • Монитор погоды в Цзяньфане

АРХИВ ПОГОДЫ в Цзяньфане

Время (UTC), дата Ветер
(напр.,м/с)
 
Видим.   Явления Облачность Т
(С)
Тd
(С)
f
(%)
Тe
(С)
Тes
(С)
Комфортность P
(гПа)
Po
(гПа)
Тmin
(С)
Tmax
(С)
R
(мм)
R24
(мм)
S
(см)
18 12.01 В 1 12 км ?/? -11.0 -18.5 54 -13 -13 1036.2 1036.0 -4.6
21 12.01 Ю 4 13 км н/о -10.4 -18.4 52 -17 -17 1035.3 1035.0
00 13.01 Ю 4 13 км ясно -9.2 -18.0 49 -16 -16 1036.8 1037.0
03 13.01 С 1 13 км 9/9
[]
-10.5 -18.5 52 -13 -12 1040.3 1040.0
06 13.01 Ю 2 13 км 9/9
[]
-6.2 -17.6 40 -10 -9 1038.6 1039.0 -12.5
09 13.01 С 9 22 км 9/9
[]
+0.9 -11.8 38 -6 -6 1036.2 1036.0
12 13.01 СВ 8 26 км 9/9
[]
-1.6 -11.4 47 -9 -9 1038.2 1038.0
18 13.01 С 4 13 км ?/? -10.1 -18.5 50 -17 -17 1040.8 1041.0 +1.3
21 13.01 С 4 18 км н/о -9.8 -16.3 59 -17 -17 1040.3 1040.0
00 14.01 СВ 5 20 км 9/9
[]
-9.2 -14.9 63 -17 -17 1041.0 1041.0
03 14.01 С 5 19 км ясно -7.1 -14.2 57 -14 -14 1042.8 1043.0
06 14.01 Ю 2 16 км ясно -3.9 -14.4 44 -7 -3 1041.7 1042.0 -12.0
09 14.01 ЮЗ 2 16 км 8/8
[]
-3.2 -14.9 40 -6 -6 1040.8 1041.0
12 14.01 З 1 17 км 8/8
[]
-4.5 -15.2 43 -6 -6 1040.9 1041.0
18 14.01 С 3 17 км ?/? -7.2 -15.6 51 -12 -12 1038.5 1039.0 -2.4
21 14.01 С 5 17 км н/о -8.2 -15.0 58 -16 -16 1037.1 1037.0
00 15.01 С 5 18 км 6/6
[]
-7.9 -14.5 59 -15 -15 1035.7 944.8
03 15.01 З 1 19 км 9/9
[]
-6.6 -14.1 55 -9 -8 1036.8 1037.0
06 15.01 З 2 19 км 9/9
[]
-1.7 -12.6 43 -5 -4 1033.8 1034.0 -9.6
09 15.01 Ю 3 17 км ясно -1.8 -13.6 40 -6 -5 1032.9 1033.0
12 15.01 З 1 16 км ясно -5.4 -15.2 46 -7 -7 1033.2 1033.0
18 15.01 С 4 15 км ?/? -10.2 -15.0 68 -17 -17 1031.2 1031.0 -0.9
21 15.01 СВ 2 14 км н/о -9.4 -13.7 71 -14 -14 1030.7 1031.0
00 16.01 С 2 13 км 9/9
[]
-10.6 -14.5 73 -15 -15 1031.1 1031.0
03 16.01 С 4 13 км 9/9
[]
-7.7 -12.9 66 -14 -14 1031.8 1032.0
06 16.01 Ю 2 15 км 9/9
[]
-3.3 -13.3 46 -7 -6 1030.3 1030.0 -11.8
09 16.01 ЮЗ 5 15 км 9/9
[]
-2.7 -13.3 44 -9 -9 1028.7 1029.0
12 16.01 Ю 1 15 км 9/9
[]
-5.4 -13.9 51 -7 -7 1029.3 1029.0
18 16.01 С 3 14 км ?/? -9.8 -16.1 60 -16 -16 1029.6 1030.0 -1.7
21 16.01 С 2 14 км ?/? -9.3 -14.5 66 -14 -14 1029.0 1029.0
00 17.01 СЗ 1 13 км ясно -11.7 -15.9 71 -14 -14 1031.1 939.8
03 17.01 С 2 14 км 3/3
[]
-7.6 -13.8 61 -12 -11 1034.1 1034.0
06 17.01 Ю 2 14 км 3/3
[]
-3.5 -14.0 44 -7 -4 1033.9 1034.0 -11.9
09 17.01 Ю 3 15 км 3/3
[]
-2.6 -14.3 40 -7 -6 1032.9 1033.0
12 17.01 С 1 15 км 3/3
[]
-5.3 -15.1 46 -7 -7 1034.8 1035.0
18 17.01 С 4 12 км ?/? -9.2 -15.1 62 -16 -16 1034.1 1034.0 -1.7
21 17.01 С 4 12 км н/о -8.9 -14.5 64 -16 -16 1033.3 1033.0
00 18.01 СВ 5 13 км ясно -9.8 -14.4 69 -18 -18 1033.0 1033.0
03 18.01 С 3 14 км 8/8
[]
-6.3 -13.4 57 -12 -11 1034.0 1034.0
06 18.01 ЮЗ 1 18 км 9/9
[]
-2.5 -12.8 45 -4 -3 1032.2 1032.0 -10.3
09 18.01 Ю 2 17 км 9/9
[]
-1.2 -12.8 41 -4 -4 1030.7 1031.0
12 18.01 В 1 15 км 9/9
[]
-4.5 -14.4 46 -6 -6 1032.0 1032.0
18 18.01 С 3 6000 м слаб. снег ?/? -5.6 -8.8 78 -11 -11 1032.0 1032.0 -0.7 0.1
21 18.01 С 4 14 км н/о -4.5 -8.6 73 -11 -11 1031.4 1031.0
00 19.01 СВ 3 15 км 9/9
[]
-4.7 -9.7 68 -10 -10 1032.6 1033.0 0.1
03 19.01 штиль 0 6000 м дымка 9/9
[]
-6.4 -7.8 90 -7 -7 1036.1 1036.0
06 19.01 З 2 9000 м 9/9
[]
-2.5 -6.0 77 -6 -6 1037.4 1037.0 -7.4
09 19.01 ЮЗ 2 13 км ясно -0.1 -7.1 59 -3 -2 1038.1 1038.0
12 19.01 СВ 2 13 км ясно -2.8 -8.7 64 -6 -6 1040.2 1040.0

 

Местоположение метеостанции Цзяньфан (Синьцзян-Уйгурский автономный район, Китай): широта 43.22 долгота 91.73 высота над уровнем моря 792 м.

В архиве по умолчанию представлена погода в Цзяньфане за последнюю неделю. Архивные данные за месяц целиком и за предыдущие месяцы, начиная с января 2011 года, Вы можете получить, выбрав интересующий диапазон дат из раскрывающегося списка и нажав кнопку "Ввод!".


*Определитесь, кто Вы:
робот инопланетянин человек

Внимание! Время в таблицах - всемирное. Для получения местного времени необходимо прибавить поправку, которая равна 8 ч.

Смотрите также архив погоды в соседних городах и на ближайших метеорологических станциях:

Погода в Хами (Синьцзян-Уйгурский автономный район, Китай) (152 км)
Погода в Цитае (Синьцзян-Уйгурский автономный район, Китай) (195 км)
Погода в Турфане (Синьцзян-Уйгурский автономный район, Китай) (208 км)
Погода в Бейта Шан (Синьцзян-Уйгурский автономный район, Китай) (258 км)
Погода в Наомаоху (Синьцзян-Уйгурский автономный район, Китай) (278 км)
Погода в Байтаге (Монголия) (323 км)
Погода в Урумчи (Синьцзян-Уйгурский автономный район, Китай) (335 км)
Погода в Тонхиле (Монголия) (385 км)
Погода в Жаргаланте (Монголия) (415 км)
Погода в Дуньхуане (Ганьсу, Китай) (420 км)

Пояснения к столбцам:

Ветер - указаны скорость ветра в м/с - средняя за 10 мин, порывы в срок и между сроками (в фигурных скобках) и направление, откуда дует ветер: С - северный, СВ - северо-восточный, В - восточный, ЮВ - юго-восточный, Ю - южный, ЮЗ - юго-западный, З - западный, СЗ - северо-западный.
Видимость - горизонтальная дальность видимости в метрах или километрах. При видимости от 1 до 10 км при отсутствии осадков обычно наблюдается дымка, при ухудшении видимости до 1 км и менее - туман. В сухую погоду видимость может ухудшаться дымом, пылью или мглою.
Явления - указаны атмосферные явления, наблюдавшиеся в срок или в последний час перед сроком; фигурными скобками обозначены явления, наблюдавшиеся между сроками (за 1-3 часа до срока); квадратными скобками обозначены град или гололедные отложения с указанием их диаметра в мм.
Облачность - указаны через наклонную черту общая и нижняя облачность в баллах и высота нижней границы облаков в метрах; квадратными скобками обозначены формы облаков: Ci - перистые, Cs - перисто-слоистые, Cc - перисто-кучевые, Ac - высококучевые, As - высокослоистые, Sc - слоисто-кучевые, Ns - слоисто-дождевые, Cu - кучевые, Cb - кучево-дождевые. Подробнее классификацию облаков см. в Атласе облаков (PDF).
T - Температура воздуха - температура, измеренная на высоте 2 м над землей.
Td - Температура точки росы - температура, при понижении до которой содержащийся в воздухе водяной пар достигнет насыщения.
f - Относительная влажность воздуха - влажноcть воздуха, измеренная на высоте 2 м над землей.
Te - Эффективная температура - температура, которую ощущает одетый по сезону человек в тени. Характеристика душности погоды. При расчете учитывается влияние влажности воздуха и скорости ветра на теплоощущения человека.
Tes - Эффективная температура на солнце - температура, которую ощущает человек, с поправкой на солнечный нагрев. Характеристика знойности погоды. Зависит от высоты солнца над горизонтом, облачности и скорости ветра. Ночью, в пасмурную погоду, а также при ветре 12 м/с и более поправка равна нулю.
P - Атмосферное давление - приведенное к уровню моря атмосферное давление.
Po - Атмосферное давление - измеренное на уровне метеостанции атмосферное давление.
Tmin - Минимальная температура - минимум температуры воздуха на высоте 2 м над землей.
Tmax - Максимальная температура - максимум температуры воздуха на высоте 2 м над землей.
R - Количество осадков - Количество выпавших осадков за период времени, мм. При наведении курсора мыши на число - период времени, за который выпало указанное количество осадков.
R24 - Количество осадков - Количество выпавших осадков за 24 часа, мм.
S - Снежный покров - Высота снежного покрова, см. При наведении курсора мыши на число - состояние снежного покрова и степень покрытия местности в баллах.